LRCK Weather Reports


Display with metric or nautical units.
time (UTC)temp
F
wind
direction
speed
MPH
gust
MPH
rain 1hr
in
rain 24hr
in
rain mn
in
humidity
%
barometer
mb
20260903031817 66 330 7.0 0.0 0.00 0.00 0.00 83 1016.0
20260903030425 66 330 7.0 0.0 0.00 0.00 0.00 83 1016.0
20260903024925 68 330 5.0 0.0 0.00 0.00 0.00 78 1016.0
20260903023405 68 330 5.0 0.0 0.00 0.00 0.00 78 1016.0
20260903021816 68 320 8.0 0.0 0.00 0.00 0.00 78 1017.0
20260903020432 68 320 8.0 0.0 0.00 0.00 0.00 78 1017.0
20260903014818 66 330 6.0 0.0 0.00 0.00 0.00 83 1017.0
20260903013316 66 330 6.0 0.0 0.00 0.00 0.00 83 1017.0
20260903011817 64 320 7.0 0.0 0.00 0.00 0.00 88 1017.0
20260903010317 64 320 7.0 0.0 0.00 0.00 0.00 88 1017.0
20260903004818 66 320 6.0 0.0 0.00 0.00 0.00 88 1017.0
20260903003317 66 320 6.0 0.0 0.00 0.00 0.00 88 1017.0
20260903001817 66 320 7.0 0.0 0.00 0.00 0.00 88 1017.0
20260903000318 66 320 7.0 0.0 0.00 0.00 0.00 88 1017.0
20260902234817 66 270 7.0 0.0 0.00 0.00 0.00 88 1017.0
20260902233317 66 270 7.0 0.0 0.00 0.00 0.00 88 1017.0
20260902231818 66 270 6.0 0.0 0.00 0.00 0.00 88 1017.0
20260902230316 66 270 6.0 0.0 0.00 0.00 0.00 88 1017.0
20260902224817 66 250 5.0 0.0 0.00 0.00 0.00 88 1017.0
20260902223317 66 250 5.0 0.0 0.00 0.00 0.00 88 1017.0
20260902221817 66 220 3.0 0.0 0.00 0.00 0.00 88 1017.0
20260902220317 66 220 3.0 0.0 0.00 0.00 0.00 88 1017.0
20260902214817 64 170 5.0 0.0 0.00 0.00 0.00 94 1017.0
20260902213317 64 170 5.0 0.0 0.00 0.00 0.00 94 1017.0
20260902211818 66 160 3.0 0.0 0.00 0.00 0.00 94 1017.0
20260902210317 66 160 3.0 0.0 0.00 0.00 0.00 94 1017.0
20260902204817 68 170 3.0 0.0 0.00 0.00 0.00 88 1017.0
20260902203317 68 170 3.0 0.0 0.00 0.00 0.00 88 1017.0
20260902201817 68 180 5.0 0.0 0.00 0.00 0.00 88 1017.0
20260902200333 68 180 5.0 0.0 0.00 0.00 0.00 88 1017.0
20260902194817 68 160 5.0 0.0 0.00 0.00 0.00 88 1017.0
20260902193317 68 160 5.0 0.0 0.00 0.00 0.00 88 1017.0
20260902191817 68 160 5.0 0.0 0.00 0.00 0.00 88 1018.0
20260902190317 68 160 5.0 0.0 0.00 0.00 0.00 88 1018.0
20260902184818 70 170 3.0 0.0 0.00 0.00 0.00 83 1018.0
20260902183317 70 170 3.0 0.0 0.00 0.00 0.00 83 1018.0
20260902181817 70 140 5.0 0.0 0.00 0.00 0.00 88 1017.0
20260902180317 70 140 5.0 0.0 0.00 0.00 0.00 88 1017.0
20260902174818 70 110 3.0 0.0 0.00 0.00 0.00 88 1017.0
20260902173317 70 110 3.0 0.0 0.00 0.00 0.00 88 1017.0
20260902171817 72 110 6.0 0.0 0.00 0.00 0.00 83 1017.0
20260902170317 72 110 6.0 0.0 0.00 0.00 0.00 83 1017.0
20260902164932 75 130 7.0 0.0 0.00 0.00 0.00 74 1017.0
20260902163317 75 130 7.0 0.0 0.00 0.00 0.00 74 1017.0
20260902161817 77 140 8.0 0.0 0.00 0.00 0.00 61 1017.0
20260902160328 77 140 8.0 0.0 0.00 0.00 0.00 61 1017.0
20260902154818 79 120 9.0 0.0 0.00 0.00 0.00 61 1017.0
20260902153316 79 120 9.0 0.0 0.00 0.00 0.00 61 1017.0
20260902151817 81 110 10.0 0.0 0.00 0.00 0.00 54 1017.0
20260902150317 81 110 10.0 0.0 0.00 0.00 0.00 54 1017.0
20260902144817 81 100 11.0 0.0 0.00 0.00 0.00 51 1017.0
20260902143318 81 100 11.0 0.0 0.00 0.00 0.00 51 1017.0
20260902141814 82 100 11.0 0.0 0.00 0.00 0.00 48 1017.0
20260902140317 82 100 11.0 0.0 0.00 0.00 0.00 48 1017.0
20260902134818 82 90 11.0 0.0 0.00 0.00 0.00 48 1017.0
20260902133316 82 90 11.0 0.0 0.00 0.00 0.00 48 1017.0
20260902131817 84 90 13.0 0.0 0.00 0.00 0.00 45 1017.0
20260902130317 84 90 13.0 0.0 0.00 0.00 0.00 45 1017.0
20260902124819 84 100 13.0 0.0 0.00 0.00 0.00 45 1018.0
20260902123317 84 100 13.0 0.0 0.00 0.00 0.00 45 1018.0
20260902121818 86 100 10.0 0.0 0.00 0.00 0.00 43 1018.0
20260902120317 86 100 10.0 0.0 0.00 0.00 0.00 43 1018.0
20260902114817 88 100 8.0 0.0 0.00 0.00 0.00 40 1018.0
20260902113317 88 100 8.0 0.0 0.00 0.00 0.00 40 1018.0
20260902111817 86 110 8.0 0.0 0.00 0.00 0.00 43 1018.0
20260902110318 86 110 8.0 0.0 0.00 0.00 0.00 43 1018.0
20260902104817 84 160 8.0 0.0 0.00 0.00 0.00 48 1018.0
20260902103317 84 160 8.0 0.0 0.00 0.00 0.00 48 1018.0
20260902101817 84 5.0 0.0 0.00 0.00 0.00 48 1019.0
20260902100323 84 5.0 0.0 0.00 0.00 0.00 48 1019.0
20260902094817 86 2.0 0.0 0.00 0.00 0.00 40 1019.0
20260902093317 86 2.0 0.0 0.00 0.00 0.00 40 1019.0
20260902091817 86 80 7.0 0.0 0.00 0.00 0.00 40 1019.0
20260902090418 82 60 6.0 0.0 0.00 0.00 0.00 45 1019.0
20260902084817 82 60 6.0 0.0 0.00 0.00 0.00 45 1019.0
20260902083317 82 60 6.0 0.0 0.00 0.00 0.00 45 1019.0
20260902081817 82 30 7.0 0.0 0.00 0.00 0.00 45 1019.0
20260902080318 82 30 7.0 0.0 0.00 0.00 0.00 45 1019.0
20260902074853 81 30 8.0 0.0 0.00 0.00 0.00 51 1019.0
20260902073317 81 30 8.0 0.0 0.00 0.00 0.00 51 1019.0
20260902071814 79 50 7.0 0.0 0.00 0.00 0.00 51 1019.0
20260902070317 79 50 7.0 0.0 0.00 0.00 0.00 51 1019.0
20260902064817 77 40 7.0 0.0 0.00 0.00 0.00 57 1018.0
20260902063318 77 40 7.0 0.0 0.00 0.00 0.00 57 1018.0
20260902061818 75 40 8.0 0.0 0.00 0.00 0.00 61 1018.0
20260902060317 75 40 8.0 0.0 0.00 0.00 0.00 61 1018.0
20260902054817 73 30 7.0 0.0 0.00 0.00 0.00 65 1018.0
20260902053317 73 30 7.0 0.0 0.00 0.00 0.00 65 1018.0
20260902051817 68 1.0 0.0 0.00 0.00 0.00 73 1018.0
20260902050318 68 1.0 0.0 0.00 0.00 0.00 73 1018.0
20260902044817 64 1.0 0.0 0.00 0.00 0.00 83 1018.0
20260902043317 64 1.0 0.0 0.00 0.00 0.00 83 1018.0
20260902041817 64 350 10.0 0.0 0.00 0.00 0.00 78 1018.0
20260902040321 64 350 10.0 0.0 0.00 0.00 0.00 78 1018.0
20260902034817 64 350 8.0 0.0 0.00 0.00 0.00 78 1018.0
20260902033318 64 350 8.0 0.0 0.00 0.00 0.00 78 1018.0